Weather History for New Haven, CT

Change the Weather History Date:

Saturday, June 15, 2013

  Actual Average Record
Temperature  
Mean Temperature 70 °F -  
Max Temperature 80 °F 73 °F 98 °F (1988)
Min Temperature 60 °F 57 °F 48 °F (1978)
Cooling Degree Days 4    
Growing Degree Days 20 (Base 50)    
Moisture  
Dew Point 54 °F    
Average Humidity 58    
Maximum Humidity 81    
Minimum Humidity 32    
Precipitation  
Precipitation 0.00 in - - ()
Sea Level Pressure  
Sea Level Pressure 29.93 in    
Wind  
Wind Speed 5 mph (West)    
Max Wind Speed 9 mph    
Max Gust Speed -    
Visibility 10 miles    
Events      
Averages and records for this station are not official NWS values.
T = Trace of Precipitation, MM = Missing Value Source: NWS Daily Summary

Daily Weather History Graph

Daily Weather History Graph

Search for Another Location

Airport:

Trip Planner

Search our weather history database for the weather conditions in past years. The results will help you decide how hot, cold, wet, or windy it might be!

Date:

Astronomy

Jun. 15, 2013 Rise Set
Actual Time 5:17 AM EDT 8:26 PM EDT
Civil Twilight 4:44 AM EDT 9:00 PM EDT
Nautical Twilight 4:00 AM EDT 9:43 PM EDT
Astronomical Twilight 3:09 AM EDT 10:35 PM EDT
Moon 11:53 AM EDT (6/15) No Moon Set
Length of Visible Light 16h 16m
Length of Day
15h 08m
Waxing Crescent, 39% of the Moon is Illuminated
Jun 15
Waxing Crescent
Jun 16
First Quarter
Jun 23
Full
Jun 30
Last Quarter
Jul 8
New

Hourly Weather History & Observations

Time (EDT) Temp. Dew Point Humidity Pressure Visibility Wind Dir Wind Speed Gust Speed Precip Events Conditions
12:53 AM 63.0 °F 55.0 °F 75% 29.85 in 10.0 mi NNW 5.8 mph - N/A   Clear
1:53 AM 64.0 °F 55.9 °F 75% 29.86 in 10.0 mi NW 5.8 mph - N/A   Clear
2:53 AM 60.1 °F 54.0 °F 80% 29.87 in 10.0 mi Calm Calm - N/A   Clear
3:53 AM 63.0 °F 55.0 °F 75% 29.88 in 10.0 mi NNW 5.8 mph - N/A   Clear
4:53 AM 63.0 °F 54.0 °F 72% 29.89 in 10.0 mi NW 5.8 mph - N/A   Clear
5:53 AM 62.1 °F 54.0 °F 75% 29.91 in 10.0 mi NW 4.6 mph - N/A   Clear
6:53 AM 64.0 °F 55.0 °F 73% 29.92 in 10.0 mi WNW 3.5 mph - N/A   Partly Cloudy
7:53 AM 66.9 °F 54.0 °F 63% 29.94 in 10.0 mi NW 5.8 mph - N/A   Partly Cloudy
8:53 AM 70.0 °F 54.0 °F 57% 29.96 in 10.0 mi Variable 4.6 mph - N/A   Partly Cloudy
9:53 AM 72.0 °F 54.0 °F 53% 29.97 in 10.0 mi NW 6.9 mph - N/A   Partly Cloudy
10:53 AM 75.0 °F 48.0 °F 38% 29.96 in 10.0 mi NW 8.1 mph - N/A   Clear
11:53 AM 75.9 °F 48.0 °F 37% 29.96 in 10.0 mi WNW 4.6 mph - N/A   Clear
12:53 PM 75.9 °F 48.9 °F 38% 29.96 in 10.0 mi WNW 6.9 mph - N/A   Partly Cloudy
1:53 PM 77.0 °F 48.9 °F 37% 29.95 in 10.0 mi West 5.8 mph - N/A   Partly Cloudy
2:53 PM 79.0 °F 46.9 °F 32% 29.94 in 10.0 mi Variable 6.9 mph - N/A   Clear
3:53 PM 77.0 °F 52.0 °F 42% 29.93 in 10.0 mi SW 9.2 mph - N/A   Partly Cloudy
4:53 PM 75.9 °F 54.0 °F 46% 29.92 in 10.0 mi South 6.9 mph - N/A   Partly Cloudy
5:53 PM 75.0 °F 52.0 °F 44% 29.92 in 10.0 mi South 4.6 mph - N/A   Clear
6:53 PM 73.9 °F 54.0 °F 50% 29.92 in 10.0 mi SSW 4.6 mph - N/A   Clear
7:53 PM 72.0 °F 57.0 °F 59% 29.92 in 10.0 mi SW 3.5 mph - N/A   Clear
8:53 PM 73.0 °F 53.1 °F 49% 29.93 in 10.0 mi Variable 3.5 mph - N/A   Clear
9:53 PM 66.9 °F 59.0 °F 76% 29.95 in 10.0 mi South 8.1 mph - N/A   Clear
10:53 PM 68.0 °F 59.0 °F 73% 29.96 in 10.0 mi WSW 5.8 mph - N/A   Clear
11:53 PM 64.9 °F 59.0 °F 81% 29.97 in 10.0 mi Calm Calm - N/A   Clear